Chamberlain, SD

4:57 AM CDT on August 18, 2017 (GMT -0500)
Chamberlain

Weather History for K9V9 - October, 2012

Change the Weather History Date:

Sunday, October 7, 2012

  Actual Average Record
Temperature  
Mean Temperature 42 °F -  
Max Temperature 62 °F 65 °F 91 °F (2003)
Min Temperature 23 °F 39 °F 21 °F (2000)
Degree Days  
Heating Degree Days 22    
Moisture  
Dew Point 22 °F    
Average Humidity 51    
Maximum Humidity 81    
Minimum Humidity 18    
Precipitation  
Precipitation 0.00 in - - ()
Sea Level Pressure  
Sea Level Pressure 30.06 in    
Wind  
Wind Speed 7 mph (SW)    
Max Wind Speed 17 mph    
Max Gust Speed 26 mph    
Averages and records for this station are not official NWS values.
T = Trace of Precipitation, MM = Missing Value Source: NWS Daily Summary

Daily Weather History Graph

Daily Weather History Graph

Search for Another Location

Airport or City:

Trip Planner

Search our weather history database for the weather conditions in past years. The results will help you decide how hot, cold, wet, or windy it might be!

Date:

Astronomy

Oct. 07, 2012 Rise Set
Actual Time 7:42 AM CDT 7:06 PM CDT
Civil Twilight 7:13 AM CDT 7:35 PM CDT
Nautical Twilight 6:40 AM CDT 8:08 PM CDT
Astronomical Twilight 6:07 AM CDT 8:41 PM CDT
Moon No Moon Rise 2:28 PM CDT (10/7)
Length of Visible Light 12h 21m
Length of Day
11h 23m
Waning Gibbous, 56% of the Moon is Illuminated
Oct 7
Waning Gibbous
Oct 8
Last Quarter
Oct 15
New
Oct 21
First Quarter
Oct 29
Full

Hourly Weather History & Observations

Time (CDT) Temp. Windchill Dew Point Humidity Pressure Visibility Wind Dir Wind Speed Gust Speed Precip Events Conditions
12:52 AM 26.1 °F 18.4 °F 19.9 °F 78% 30.30 in - SW 6.9 mph - N/A   Unknown
1:52 AM 27.0 °F 21.6 °F 19.9 °F 75% 30.27 in - SSW 4.6 mph - N/A   Unknown
2:52 AM 26.1 °F 21.9 °F 19.0 °F 75% 30.25 in - SSW 3.5 mph - N/A   Unknown
3:52 AM 27.0 °F 23.0 °F 19.0 °F 72% 30.22 in - WSW 3.5 mph - N/A   Unknown
4:52 AM 26.1 °F 21.9 °F 18.0 °F 71% 30.22 in - SW 3.5 mph - N/A   Unknown
5:52 AM 28.0 °F - 19.9 °F 72% 30.20 in - Calm Calm - N/A   Unknown
6:52 AM 26.1 °F 21.9 °F 19.9 °F 78% 30.19 in - South 3.5 mph - N/A   Unknown
7:52 AM 23.0 °F 13.9 °F 18.0 °F 81% 30.17 in - SW 8.1 mph - N/A   Unknown
8:52 AM 34.0 °F 28.0 °F 26.1 °F 73% 30.15 in - SW 6.9 mph - N/A   Unknown
9:52 AM 39.0 °F 31.0 °F 26.1 °F 60% 30.14 in - SW 13.8 mph - N/A   Unknown
10:52 AM 44.1 °F 38.1 °F 25.0 °F 47% 30.11 in - WSW 11.5 mph - N/A   Unknown
11:52 AM 48.9 °F - 25.0 °F 39% 30.08 in - SSW 9.2 mph - N/A   Unknown
12:52 PM 54.0 °F - 18.0 °F 24% 30.05 in - SW 11.5 mph 19.6 mph N/A   Unknown
1:52 PM 57.0 °F - 14.0 °F 18% 30.00 in - West 11.5 mph - N/A   Unknown
2:52 PM 60.1 °F - 16.0 °F 18% 29.97 in - West 17.3 mph 26.5 mph N/A   Unknown
3:52 PM 60.1 °F - 21.0 °F 22% 29.94 in - WNW 11.5 mph 24.2 mph N/A   Unknown
4:52 PM 62.1 °F - 25.0 °F 24% 29.93 in - WNW 15.0 mph 25.3 mph N/A   Unknown
5:52 PM 60.1 °F - 24.1 °F 25% 29.92 in - WNW 5.8 mph - N/A   Unknown
6:52 PM 55.9 °F - 25.0 °F 30% 29.92 in - Calm Calm - N/A   Unknown
7:52 PM 50.0 °F - 25.0 °F 38% 29.93 in - Calm Calm - N/A   Unknown
8:52 PM 46.0 °F 43.1 °F 24.1 °F 42% 29.91 in - South 5.8 mph - N/A   Unknown
9:52 PM 43.0 °F 40.3 °F 23.0 °F 45% 29.91 in - South 4.6 mph - N/A   Unknown
10:52 PM 41.0 °F 35.8 °F 25.0 °F 53% 29.88 in - SW 8.1 mph - N/A   Unknown
11:52 PM 39.9 °F 34.5 °F 26.1 °F 58% 29.87 in - SW 8.1 mph - N/A   Unknown